AA0FC Weather Reports


time (UTC)temp
F
wind
direction
speed
knots
gust
knots
rain 1hr
in
rain 24hr
in
rain mn
in
humidity
%
barometer
mb
20260505124922 34 16 1.7 6.1 0.04 0.38 0.23 87 1014.7
20260505124423 34 8 1.7 6.1 0.04 0.38 0.23 86 1014.7
20260505123922 35 5 1.7 6.1 0.03 0.37 0.22 86 1014.6
20260505123421 35 286 1.7 6.1 0.04 0.37 0.22 86 1014.6
20260505122925 35 20 0.9 5.2 0.03 0.36 0.21 86 1014.4
20260505122921 35 326 0.9 3.5 0.04 0.37 0.22 86 1014.6
20260505121921 35 15 1.7 5.2 0.04 0.36 0.21 86 1014.5
20260505121420 35 335 1.7 5.2 0.03 0.35 0.20 86 1014.5
20260505120920 35 316 2.6 7.8 0.03 0.35 0.20 86 1014.5
20260505120419 35 335 1.7 7.8 0.03 0.35 0.20 86 1014.5
20260505115918 36 1 2.6 7.0 0.02 0.34 0.19 86 1014.4
20260505115413 36 309 2.6 7.8 0.03 0.34 0.19 86 1014.4
20260505114912 36 35 2.6 7.8 0.03 0.34 0.19 86 1014.3
20260505114410 36 307 2.6 7.0 0.03 0.34 0.19 86 1014.4
20260505113911 36 301 2.6 7.8 0.03 0.34 0.19 86 1014.4
20260505113408 36 45 3.5 7.8 0.03 0.33 0.18 86 1014.3
20260505112909 37 335 4.3 8.7 0.03 0.33 0.18 86 1014.1
20260505112406 37 304 3.5 8.7 0.03 0.33 0.18 86 1014.1
20260505111905 37 8 2.6 8.7 0.03 0.32 0.17 86 1014.1
20260505111636 37 12 2.6 8.7 0.03 0.32 0.17 86 1014.0
20260505110904 37 11 3.5 7.0 0.03 0.32 0.17 86 1014.1
20260505110402 38 12 4.3 8.7 0.04 0.32 0.17 86 1013.9
20260505101855 40 9 4.3 8.7 0.10 0.29 0.14 86 1013.1
20260505101356 40 24 4.3 12.2 0.10 0.29 0.14 86 1013.1
20260505101352 41 15 5.2 12.2 0.10 0.29 0.14 86 1013.0
20260505100350 41 11 4.3 10.4 0.09 0.28 0.13 86 1012.9
20260505095851 41 20 3.5 9.6 0.08 0.27 0.13 86 1012.7
20260505095349 41 26 3.5 10.4 0.07 0.26 0.11 86 1012.7
20260505094849 42 4 2.6 10.4 0.07 0.25 0.10 86 1012.7
20260505094349 42 8 2.6 7.8 0.06 0.24 0.09 86 1012.5
20260505093846 42 2 3.5 13.0 0.04 0.22 0.07 86 1012.5
20260505093343 42 2 4.3 13.0 0.02 0.20 0.05 86 1012.5
20260505093116 42 5 4.3 10.4 0.01 0.19 0.04 86 1012.4
20260505092344 42 335 4.3 9.6 0.01 0.19 0.04 86 1012.5
20260505092113 42 16 4.3 9.6 0.01 0.19 0.04 86 1012.4
20260505091342 42 4 4.3 10.4 0.01 0.19 0.04 86 1012.3
20260505091112 42 12 6.1 12.2 0.01 0.19 0.04 86 1012.3
20260505090341 42 4 6.1 12.2 0.02 0.19 0.04 86 1012.2
20260505085840 43 4 5.2 11.3 0.02 0.19 0.04 86 1012.3
20260505085338 43 30 5.2 11.3 0.03 0.19 0.04 86 1012.2
20260505084836 43 335 5.2 9.6 0.02 0.18 0.03 86 1012.0
20260505084335 43 303 4.3 8.7 0.02 0.18 0.03 86 1011.9
20260505083832 44 15 4.3 9.6 0.02 0.18 0.03 86 1011.9
20260505083332 44 18 3.5 9.6 0.02 0.18 0.03 86 1012.0
20260505082831 44 11 2.6 9.6 0.03 0.18 0.03 86 1011.9
20260505082331 44 22 3.5 9.6 0.03 0.18 0.03 86 1011.9
20260505081830 44 324 4.3 10.4 0.03 0.18 0.03 86 1012.2
20260505081326 44 76 3.5 10.4 0.03 0.18 0.03 85 1012.3
20260505080827 44 5 4.3 10.4 0.03 0.18 0.03 85 1012.2
20260505080327 44 335 4.3 10.4 0.02 0.17 0.02 85 1012.3
20260505075824 44 321 4.3 9.6 0.02 0.17 0.02 85 1012.0
20260505075321 45 15 4.3 9.6 0.01 0.16 0.02 85 1012.0
20260505074822 45 9 4.3 12.2 0.01 0.16 0.01 85 1012.0
20260505074322 46 323 4.3 12.2 0.01 0.16 0.01 85 1012.2
20260505073822 46 1 5.2 10.4 0.01 0.16 0.01 85 1012.3
20260505073320 47 15 4.3 10.4 0.01 0.16 0.01 85 1012.2
20260505072822 48 335 0.9 6.1 0.00 0.15 0.00 86 1012.0
20260505072818 48 335 2.6 7.8 0.00 0.15 0.00 86 1012.0
20260505071816 48 335 0.9 3.5 0.00 0.15 0.00 86 1012.0
20260505071316 48 20 0.9 3.5 0.00 0.15 0.00 86 1012.0
20260505070815 48 20 0.9 3.5 0.00 0.15 0.00 86 1011.9
20260505070548 48 318 0.9 3.5 0.00 0.15 0.00 86 1011.8
20260505065816 48 236 0.0 1.7 0.00 0.15 0.00 86 1011.6
20260505065316 47 221 0.0 0.9 0.00 0.15 0.00 86 1011.4
20260505064815 47 221 0.0 0.0 0.00 0.15 0.00 86 1011.4
20260505064316 47 221 0.0 0.0 0.00 0.15 0.00 86 1011.4
20260505063816 47 221 0.0 0.0 0.00 0.15 0.00 86 1011.6
20260505063316 47 221 0.0 0.0 0.00 0.15 0.00 86 1011.4
20260505063046 47 221 0.0 0.0 0.00 0.15 0.00 86 1011.4
20260505062546 47 221 0.0 0.0 0.00 0.15 0.00 86 1011.4
20260505061816 47 221 0.0 0.0 0.00 0.15 0.00 86 1011.6
20260505061315 47 221 0.0 0.0 0.00 0.15 0.00 86 1011.4
20260505060814 47 221 0.0 0.0 0.00 0.15 0.00 86 1011.4
20260505060314 47 221 0.0 0.0 0.00 0.15 0.00 86 1011.6
20260505055810 47 221 0.0 0.9 0.00 0.15 0.15 85 1011.6
20260505055308 47 221 0.0 0.9 0.00 0.15 0.15 85 1011.6
20260505054808 47 221 0.0 0.9 0.00 0.15 0.15 85 1011.7
20260505054307 47 221 0.0 0.9 0.00 0.15 0.15 85 1011.6
20260505053806 47 221 0.0 0.9 0.00 0.15 0.15 85 1011.4
20260505053304 47 221 0.0 0.0 0.00 0.15 0.15 85 1011.3
20260505052804 47 221 0.0 0.9 0.00 0.15 0.15 85 1011.2
20260505052304 47 221 0.0 1.7 0.00 0.15 0.15 85 1011.2
20260505051801 47 221 0.9 1.7 0.00 0.15 0.15 85 1011.4
20260505051300 47 221 0.9 3.5 0.00 0.15 0.15 85 1011.3
20260505051256 47 221 0.9 1.7 0.00 0.15 0.15 85 1011.2
20260505050254 47 221 0.9 3.5 0.00 0.15 0.15 84 1011.3
20260505041751 48 209 2.6 5.2 0.04 0.15 0.15 84 1011.8
20260505041747 48 209 1.7 5.2 0.03 0.15 0.15 84 1011.7
20260505040746 48 230 1.7 4.3 0.05 0.15 0.15 83 1011.8
20260505040246 48 221 0.9 4.3 0.07 0.15 0.15 83 1011.8
20260505035743 48 221 0.9 4.3 0.09 0.15 0.15 83 1011.7
20260505035244 48 220 0.9 3.5 0.10 0.15 0.15 83 1011.6
20260505034744 48 220 0.9 3.5 0.11 0.15 0.15 82 1011.6
20260505034242 49 220 0.9 3.5 0.12 0.15 0.15 82 1011.7
20260505033740 49 220 0.9 5.2 0.12 0.15 0.15 82 1011.8
20260505033240 49 218 0.9 7.0 0.13 0.15 0.15 81 1011.9
20260505032735 49 241 1.7 8.7 0.13 0.14 0.14 81 1011.8
20260505032234 49 272 2.6 8.7 0.12 0.13 0.13 81 1011.9
20260505031734 50 250 2.6 7.8 0.11 0.12 0.12 80 1011.8
20260505031233 50 258 2.6 8.7 0.10 0.11 0.11 80 1011.7
20260505030733 50 265 3.5 8.7 0.09 0.10 0.10 79 1011.7
20260505030234 50 259 3.5 7.8 0.07 0.08 0.08 78 1011.6
20260505025734 50 274 2.6 7.8 0.05 0.06 0.07 77 1011.6
20260505025504 51 303 1.7 7.0 0.04 0.05 0.05 75 1011.4
20260505024730 51 258 2.6 7.0 0.03 0.04 0.04 75 1011.2
20260505024158 51 283 2.6 5.2 0.02 0.03 0.03 73 1011.0
20260505023655 51 303 1.7 5.2 0.01 0.02 0.02 72 1010.9
20260505023156 51 314 1.7 5.2 0.01 0.02 0.02 71 1010.9
20260505022654 52 304 1.7 5.2 0.00 0.01 0.01 70 1010.6
20260505022152 52 316 1.7 4.3 0.00 0.01 0.01 69 1010.5
20260505021651 52 310 1.7 5.2 0.00 0.01 0.01 68 1010.5
20260505021152 52 315 2.6 5.2 0.00 0.01 0.01 68 1010.5
20260505020650 52 320 2.6 5.2 0.01 0.01 0.01 68 1010.5
20260505020150 53 313 2.6 7.0 0.01 0.01 0.01 67 1010.7
20260505015644 53 278 3.5 7.0 0.01 0.01 0.01 67 1010.7
20260505015144 53 301 2.6 7.0 0.01 0.01 0.01 67 1010.7
20260505014642 53 308 2.6 7.0 0.01 0.01 0.01 66 1010.6
20260505014142 53 2 2.6 7.0 0.01 0.01 0.01 66 1010.5
20260505013640 54 335 2.6 7.8 0.01 0.01 0.01 65 1010.3
20260505013410 54 313 3.5 9.6 0.01 0.01 0.01 64 1010.2
20260505012909 55 325 4.3 9.6 0.01 0.01 0.01 63 1010.3
20260505012409 56 7 4.3 9.6 0.01 0.01 0.01 61 1010.4
20260505011636 57 335 3.5 9.6 0.01 0.01 0.01 60 1010.0
20260505011407 57 291 2.6 5.2 0.01 0.01 0.01 60 1010.2
20260505010635 58 10 1.7 5.2 0.00 0.00 0.00 57 1009.9
20260505010136 58 29 1.7 4.3 0.00 0.00 0.00 55 1009.8
20260505005904 58 4 1.7 5.2 0.00 0.00 0.00 54 1009.8
20260505005405 58 8 1.7 5.2 0.00 0.00 0.00 52 1009.6
20260505004632 58 304 1.7 4.3 0.00 0.00 0.00 52 1009.7
20260505004132 58 305 0.9 4.3 0.00 0.00 0.00 52 1009.7
20260505003630 58 303 2.6 7.8 0.00 0.00 0.00 53 1009.7
20260505003129 58 311 3.5 7.8 0.00 0.00 0.00 53 1009.6
20260505002629 59 22 2.6 5.2 0.00 0.00 0.00 53 1009.5
20260505002124 59 3 2.6 5.2 0.00 0.00 0.00 52 1009.5
20260505001622 59 16 3.5 7.0 0.00 0.00 0.00 51 1009.5
20260505001349 60 9 3.5 7.0 0.00 0.00 0.00 50 1009.5
20260505000616 60 331 2.6 7.0 0.00 0.00 0.00 49 1009.5
20260505000113 60 331 1.7 5.2 0.00 0.00 0.00 48 1009.3
20260504235611 60 20 2.6 6.1 0.00 0.00 0.00 48 1009.3
20260504235112 60 20 2.6 6.1 0.00 0.00 0.00 48 1009.3
20260504234609 60 20 3.5 7.8 0.00 0.00 0.00 48 1009.5
20260504234109 60 20 3.5 7.8 0.00 0.00 0.00 48 1009.3
20260504233834 60 20 3.5 7.8 0.00 0.00 0.00 47 1009.2
20260504233335 60 20 2.6 7.0 0.00 0.00 0.00 46 1009.2
20260504232832 60 20 2.6 5.2 0.00 0.00 0.00 46 1009.0
20260504232101 60 330 2.6 5.2 0.00 0.00 0.00 47 1009.1
20260504231830 60 335 3.5 6.1 0.00 0.00 0.00 47 1009.1
20260504231058 60 4 4.3 10.4 0.00 0.00 0.00 48 1009.3
20260504230555 60 20 4.3 10.4 0.00 0.00 0.00 48 1009.2
20260504230055 61 311 4.3 12.2 0.00 0.00 0.00 49 1009.5
20260504225559 62 219 4.3 12.2 0.00 0.00 0.00 45 1009.3
20260504225555 61 287 4.3 12.2 0.00 0.00 0.00 48 1009.3
20260504224552 62 281 4.3 9.6 0.00 0.00 0.00 43 1009.5
20260504224052 62 230 3.5 9.6 0.00 0.00 0.00 40 1009.5
20260504223551 62 20 1.7 9.6 0.00 0.00 0.00 39 1009.3
20260504223547 62 278 0.9 4.3 0.00 0.00 0.00 39 1009.3
20260504222815 62 20 1.7 4.3 0.00 0.00 0.00 39 1009.2
20260504222042 62 20 1.7 7.0 0.00 0.00 0.00 38 1009.0
20260504221541 62 20 3.5 7.8 0.00 0.00 0.00 38 1009.0
20260504221041 62 20 5.2 10.4 0.00 0.00 0.00 39 1008.8
20260504220808 63 20 6.1 13.9 0.00 0.00 0.00 39 1008.5
20260504220642 63 20 6.1 13.9 0.00 0.00 0.00 39 1008.4
20260504215535 63 20 7.0 16.5 0.00 0.00 0.00 40 1008.3
20260504215034 63 4 8.7 17.4 0.00 0.00 0.00 38 1008.3
20260504214805 64 20 7.8 17.4 0.00 0.00 0.00 38 1008.3
20260504214033 63 3 7.8 18.2 0.00 0.00 0.00 39 1008.2
20260504213803 64 18 9.6 20.0 0.00 0.00 0.00 39 1008.3
20260504213305 64 7 10.4 20.0 0.00 0.00 0.00 37 1008.4
20260504212533 65 18 9.6 20.9 0.00 0.00 0.00 36 1008.4
20260504212304 65 335 8.7 20.9 0.00 0.00 0.00 36 1008.3
20260504211529 65 27 7.8 17.4 0.00 0.00 0.00 36 1008.4
20260504211300 65 16 8.7 17.4 0.00 0.00 0.00 36 1008.5
20260504210529 66 12 8.7 17.4 0.00 0.00 0.00 33 1008.8
20260504210029 67 15 6.1 17.4 0.00 0.00 0.00 31 1008.8
20260504205529 69 311 2.6 8.7 0.00 0.00 0.00 29 1008.8
20260504205029 69 137 2.6 6.1 0.00 0.00 0.00 28 1008.4
20260504204523 70 20 3.5 6.1 0.00 0.00 0.00 28 1008.3
20260504204252 71 171 4.3 7.8 0.00 0.00 0.00 27 1008.3
20260504203521 72 214 5.2 11.3 0.00 0.00 0.00 26 1008.1
20260504203021 72 151 4.3 11.3 0.00 0.00 0.00 26 1008.2
20260504202520 71 138 3.5 10.4 0.00 0.00 0.00 26 1008.1
20260504202021 70 193 3.5 6.1 0.00 0.00 0.00 28 1008.1
20260504201521 68 221 2.6 6.1 0.00 0.00 0.00 29 1008.1
20260504201021 67 20 3.5 9.6 0.00 0.00 0.00 30 1008.2
20260504200752 67 155 5.2 9.6 0.00 0.00 0.00 30 1008.2
20260504200019 67 20 6.1 11.3 0.00 0.00 0.00 29 1008.1
20260504195518 68 20 6.1 15.6 0.00 0.00 0.00 28 1008.1
20260504195016 70 20 6.1 15.6 0.00 0.00 0.00 26 1008.1
20260504194514 73 20 4.3 13.9 0.00 0.00 0.00 23 1008.3
20260504194246 75 220 2.6 6.1 0.00 0.00 0.00 19 1008.2
20260504193515 76 20 1.7 11.3 0.00 0.00 0.00 18 1007.9
20260504193015 77 331 1.7 11.3 0.00 0.00 0.00 17 1007.7
20260504192515 77 320 3.5 11.3 0.00 0.00 0.00 17 1007.7
20260504192014 77 268 3.5 11.3 0.00 0.00 0.00 17 1007.6
20260504191516 76 232 3.5 7.8 0.00 0.00 0.00 19 1007.5
20260504191015 75 20 2.6 6.1 0.00 0.00 0.00 17 1007.6
20260504190512 75 20 2.6 7.0 0.00 0.00 0.00 19 1007.7
20260504190244 75 55 2.6 7.0 0.00 0.00 0.00 20 1007.6
20260504185513 75 7 3.5 7.0 0.00 0.00 0.00 20 1007.6
20260504185013 74 314 3.5 7.0 0.00 0.00 0.00 20 1007.7
20260504184513 74 14 4.3 8.7 0.00 0.00 0.00 20 1007.6
20260504184244 75 44 5.2 9.6 0.00 0.00 0.00 20 1007.7
20260504183513 75 297 5.2 11.3 0.00 0.00 0.00 20 1007.8
20260504183013 75 307 6.1 17.4 0.00 0.00 0.00 20 1007.9
20260504182511 75 20 6.1 17.4 0.00 0.00 0.00 20 1007.9
20260504182008 75 290 7.0 13.0 0.00 0.00 0.00 21 1007.9
20260504181509 74 20 7.0 13.0 0.00 0.00 0.00 21 1008.1
20260504181006 74 8 6.1 12.2 0.00 0.00 0.00 23 1008.2
20260504180739 74 291 6.1 13.9 0.00 0.00 0.00 22 1008.2
20260504180001 74 294 5.2 15.6 0.00 0.00 0.00 23 1008.2
20260504175501 73 320 5.2 15.6 0.00 0.00 0.00 24 1008.4
20260504175232 73 328 5.2 11.3 0.00 0.00 0.00 25 1008.4
20260504174500 72 302 6.1 16.5 0.00 0.00 0.00 24 1008.5
20260504173959 71 280 7.0 16.5 0.00 0.00 0.00 25 1008.8
20260504173458 71 268 7.0 13.9 0.00 0.00 0.00 25 1009.0
20260504172959 71 331 6.1 19.1 0.00 0.00 0.00 25 1009.1
20260504172459 71 7 5.2 19.1 0.00 0.00 0.00 25 1009.1
20260504171958 71 2 5.2 11.3 0.00 0.00 0.00 25 1009.2
20260504171457 71 254 6.1 12.2 0.00 0.00 0.00 26 1009.3
20260504170957 71 308 5.2 12.2 0.00 0.00 0.00 26 1009.3
20260504170428 70 299 4.3 12.2 0.00 0.00 0.00 27 1009.3
20260504160419 64 20 2.6 9.6 0.00 0.00 0.00 30 1009.5
20260504160148 64 20 2.6 9.6 0.00 0.00 0.00 30 1009.5
20260504150913 60 20 1.7 4.3 0.00 0.00 0.00 35 1009.7
20260504150416 60 20 1.7 5.2 0.00 0.00 0.00 35 1009.7
20260504150412 59 20 0.9 5.2 0.00 0.00 0.00 36 1009.7
20260504140856 51 316 0.0 0.9 0.00 0.00 0.00 49 1009.9
20260504140357 51 20 0.0 0.0 0.00 0.00 0.00 51 1010.0